Time,TemperatureF,DewpointF,PressureIn,WindDirection,WindDirectionDegrees,WindSpeedMPH,WindSpeedGustMPH,Humidity,HourlyPrecipIn,Conditions,Clouds,dailyrainin,SoftwareType,DateUTC
2013-08-03 00:00:00,66.5,59.4,29.89,NNW,333,4.0,7.0,78,0.00,,,0.00,Wunderground v.1.15,2013-08-03 05:00:00,
2013-08-03 00:06:00,66.4,59.7,29.89,NNE,20,4.0,7.0,79,0.00,,,0.00,Wunderground v.1.15,2013-08-03 05:06:00,
2013-08-03 00:12:00,66.2,59.5,29.90,North,8,4.0,7.0,79,0.00,,,0.00,Wunderground v.1.15,2013-08-03 05:12:00,
2013-08-03 00:17:00,66.0,59.3,29.91,NE,53,4.0,7.0,79,0.00,,,0.00,Wunderground v.1.15,2013-08-03 05:17:00,
2013-08-03 00:22:00,65.9,59.2,29.91,SSE,155,4.0,8.0,79,0.00,,,0.00,Wunderground v.1.15,2013-08-03 05:22:00,
2013-08-03 00:28:00,65.8,59.1,29.92,NNE,18,4.0,8.0,79,0.00,,,0.00,Wunderground v.1.15,2013-08-03 05:28:00,
2013-08-03 00:35:00,65.8,59.1,29.93,NNE,27,3.0,5.0,79,0.00,,,0.00,Wunderground v.1.15,2013-08-03 05:35:00,
2013-08-03 00:41:00,65.9,59.2,29.93,North,352,4.0,4.0,79,0.00,,,0.00,Wunderground v.1.15,2013-08-03 05:41:00,
2013-08-03 00:47:00,65.9,59.2,29.93,ENE,58,3.0,4.0,79,0.00,,,0.00,Wunderground v.1.15,2013-08-03 05:47:00,
2013-08-03 00:53:00,65.9,59.2,29.93,NE,48,2.0,5.0,79,0.00,,,0.00,Wunderground v.1.15,2013-08-03 05:53:00,
2013-08-03 00:59:00,65.9,59.2,29.92,NNE,32,3.0,6.0,79,0.00,,,0.00,Wunderground v.1.15,2013-08-03 05:59:00,
2013-08-03 01:04:00,65.9,59.6,29.92,NE,49,4.0,7.0,80,0.00,,,0.00,Wunderground v.1.15,2013-08-03 06:04:00,
2013-08-03 01:09:00,65.9,59.6,29.92,North,352,4.0,7.0,80,0.00,,,0.00,Wunderground v.1.15,2013-08-03 06:09:00,
2013-08-03 01:15:00,65.8,59.5,29.91,North,359,5.0,9.0,80,0.00,,,0.00,Wunderground v.1.15,2013-08-03 06:15:00,
2013-08-03 01:20:00,65.7,59.4,29.92,NE,47,5.0,5.0,80,0.00,,,0.00,Wunderground v.1.15,2013-08-03 06:20:00,
2013-08-03 01:26:00,65.6,59.6,29.91,South,170,4.0,6.0,81,0.00,,,0.00,Wunderground v.1.15,2013-08-03 06:26:00,
2013-08-03 01:32:00,65.4,59.4,29.91,ENE,65,4.0,5.0,81,0.00,,,0.00,Wunderground v.1.15,2013-08-03 06:32:00,
2013-08-03 01:37:00,65.2,59.2,29.91,NNE,14,4.0,5.0,81,0.00,,,0.00,Wunderground v.1.15,2013-08-03 06:37:00,
2013-08-03 01:43:00,65.1,59.5,29.91,NNE,25,4.0,8.0,82,0.00,,,0.00,Wunderground v.1.15,2013-08-03 06:43:00,
2013-08-03 01:49:00,65.0,59.4,29.91,NE,46,4.0,8.0,82,0.00,,,0.00,Wunderground v.1.15,2013-08-03 06:49:00,
2013-08-03 01:55:00,64.9,59.3,29.91,East,79,3.0,5.0,82,0.00,,,0.00,Wunderground v.1.15,2013-08-03 06:55:00,
2013-08-03 02:00:00,64.8,59.2,29.92,NNE,25,3.0,3.0,82,0.00,,,0.00,Wunderground v.1.15,2013-08-03 07:00:00,
2013-08-03 02:06:00,64.8,59.2,29.91,North,350,3.0,5.0,82,0.00,,,0.00,Wunderground v.1.15,2013-08-03 07:06:00,
2013-08-03 02:12:00,64.9,59.3,29.91,North,355,4.0,7.0,82,0.00,,,0.00,Wunderground v.1.15,2013-08-03 07:12:00,
2013-08-03 02:18:00,65.0,59.4,29.91,ESE,105,4.0,7.0,82,0.00,,,0.00,Wunderground v.1.15,2013-08-03 07:18:00,
2013-08-03 02:24:00,65.0,59.4,29.91,ENE,60,4.0,4.0,82,0.00,,,0.00,Wunderground v.1.15,2013-08-03 07:24:00,
2013-08-03 02:29:00,65.0,59.4,29.91,NNE,19,4.0,5.0,82,0.00,,,0.00,Wunderground v.1.15,2013-08-03 07:29:00,
2013-08-03 02:35:00,65.0,59.4,29.91,NNE,21,4.0,7.0,82,0.00,,,0.00,Wunderground v.1.15,2013-08-03 07:35:00,
2013-08-03 02:41:00,65.1,59.5,29.91,NE,37,4.0,6.0,82,0.00,,,0.00,Wunderground v.1.15,2013-08-03 07:41:00,
2013-08-03 02:47:00,65.1,59.5,29.91,ENE,59,4.0,6.0,82,0.00,,,0.00,Wunderground v.1.15,2013-08-03 07:47:00,
2013-08-03 02:53:00,65.1,59.5,29.92,NNE,18,3.0,4.0,82,0.00,,,0.00,Wunderground v.1.15,2013-08-03 07:53:00,
2013-08-03 02:58:00,65.2,59.6,29.92,NNW,347,2.0,4.0,82,0.00,,,0.00,Wunderground v.1.15,2013-08-03 07:58:00,
2013-08-03 03:04:00,65.2,59.6,29.92,West,274,2.0,5.0,82,0.00,,,0.00,Wunderground v.1.15,2013-08-03 08:04:00,
2013-08-03 03:09:00,65.1,59.5,29.92,ESE,109,2.0,5.0,82,0.00,,,0.00,Wunderground v.1.15,2013-08-03 08:09:00,
2013-08-03 03:15:00,65.2,59.2,29.92,East,96,3.0,4.0,81,0.00,,,0.00,Wunderground v.1.15,2013-08-03 08:15:00,
2013-08-03 03:21:00,65.1,59.5,29.92,NNE,12,3.0,3.0,82,0.00,,,0.00,Wunderground v.1.15,2013-08-03 08:21:00,
2013-08-03 03:27:00,65.1,59.1,29.92,North,6,3.0,6.0,81,0.00,,,0.00,Wunderground v.1.15,2013-08-03 08:27:00,
2013-08-03 03:32:00,65.1,59.1,29.92,NNE,23,3.0,3.0,81,0.00,,,0.00,Wunderground v.1.15,2013-08-03 08:32:00,
2013-08-03 03:38:00,65.0,59.4,29.92,NE,34,2.0,4.0,82,0.00,,,0.00,Wunderground v.1.15,2013-08-03 08:38:00,
2013-08-03 03:44:00,64.9,59.3,29.92,NNE,30,2.0,4.0,82,0.00,,,0.00,Wunderground v.1.15,2013-08-03 08:44:00,
2013-08-03 03:50:00,64.9,59.3,29.92,NNE,30,2.0,2.0,82,0.00,,,0.00,Wunderground v.1.15,2013-08-03 08:50:00,
2013-08-03 03:55:00,64.7,59.1,29.92,NNE,30,2.0,6.0,82,0.00,,,0.00,Wunderground v.1.15,2013-08-03 08:55:00,
2013-08-03 04:00:00,64.6,59.0,29.92,NE,38,2.0,2.0,82,0.00,,,0.00,Wunderground v.1.15,2013-08-03 09:00:00,
2013-08-03 04:06:00,64.5,58.9,29.92,NNE,31,2.0,5.0,82,0.00,,,0.00,Wunderground v.1.15,2013-08-03 09:06:00,
2013-08-03 04:11:00,64.5,58.9,29.91,NNE,20,2.0,2.0,82,0.00,,,0.00,Wunderground v.1.15,2013-08-03 09:11:00,
2013-08-03 04:17:00,64.4,58.8,29.91,NNE,23,3.0,5.0,82,0.00,,,0.00,Wunderground v.1.15,2013-08-03 09:17:00,
2013-08-03 04:23:00,64.4,58.8,29.91,NE,35,3.0,5.0,82,0.00,,,0.00,Wunderground v.1.15,2013-08-03 09:23:00,
2013-08-03 04:29:00,64.5,58.5,29.91,NE,46,4.0,6.0,81,0.00,,,0.00,Wunderground v.1.15,2013-08-03 09:29:00,
2013-08-03 04:35:00,64.5,58.5,29.92,NE,44,4.0,5.0,81,0.00,,,0.00,Wunderground v.1.15,2013-08-03 09:35:00,
2013-08-03 04:41:00,64.4,58.4,29.92,North,9,3.0,7.0,81,0.00,,,0.00,Wunderground v.1.15,2013-08-03 09:41:00,
2013-08-03 04:46:00,64.3,58.3,29.92,NNE,25,3.0,7.0,81,0.00,,,0.00,Wunderground v.1.15,2013-08-03 09:46:00,
2013-08-03 04:52:00,64.1,58.5,29.93,North,353,1.0,2.0,82,0.00,,,0.00,Wunderground v.1.15,2013-08-03 09:52:00,
2013-08-03 04:58:00,63.9,58.3,29.94,NNE,19,0.0,3.0,82,0.00,,,0.00,Wunderground v.1.15,2013-08-03 09:58:00,
2013-08-03 05:04:00,63.5,57.9,29.94,NNE,16,0.0,0.0,82,0.00,,,0.00,Wunderground v.1.15,2013-08-03 10:04:00,
2013-08-03 05:11:00,63.3,58.0,29.94,NE,42,0.0,0.0,83,0.00,,,0.00,Wunderground v.1.15,2013-08-03 10:11:00,
2013-08-03 05:18:00,63.1,58.2,29.93,ENE,65,0.0,1.0,84,0.00,,,0.00,Wunderground v.1.15,2013-08-03 10:18:00,
2013-08-03 05:24:00,62.9,58.3,29.94,SSE,163,0.0,1.0,85,0.00,,,0.00,Wunderground v.1.15,2013-08-03 10:24:00,
2013-08-03 05:30:00,62.6,58.4,29.94,SSE,150,0.0,0.0,86,0.00,,,0.00,Wunderground v.1.15,2013-08-03 10:30:00,
2013-08-03 05:36:00,62.4,58.2,29.94,SSE,150,0.0,0.0,86,0.00,,,0.00,Wunderground v.1.15,2013-08-03 10:36:00,
2013-08-03 05:42:00,62.0,58.1,29.94,ENE,74,0.0,0.0,87,0.00,,,0.00,Wunderground v.1.15,2013-08-03 10:42:00,
2013-08-03 05:48:00,61.7,58.1,29.95,ENE,74,0.0,0.0,88,0.00,,,0.00,Wunderground v.1.15,2013-08-03 10:48:00,
2013-08-03 05:53:00,61.4,57.8,29.95,ENE,73,0.0,0.0,88,0.00,,,0.00,Wunderground v.1.15,2013-08-03 10:53:00,
2013-08-03 05:59:00,61.1,57.5,29.95,ENE,74,0.0,0.0,88,0.00,,,0.00,Wunderground v.1.15,2013-08-03 10:59:00,
2013-08-03 06:05:00,60.9,57.6,29.95,ENE,74,0.0,0.0,89,0.00,,,0.00,Wunderground v.1.15,2013-08-03 11:05:00,
2013-08-03 06:11:00,60.9,57.9,29.95,ENE,73,0.0,0.0,90,0.00,,,0.00,Wunderground v.1.15,2013-08-03 11:11:00,
2013-08-03 06:16:00,60.7,57.7,29.95,ENE,74,0.0,0.0,90,0.00,,,0.00,Wunderground v.1.15,2013-08-03 11:16:00,
2013-08-03 06:22:00,60.5,57.6,29.95,ENE,72,0.0,0.0,90,0.00,,,0.00,Wunderground v.1.15,2013-08-03 11:22:00,
2013-08-03 06:28:00,60.3,57.7,29.95,ENE,71,0.0,0.0,91,0.00,,,0.00,Wunderground v.1.15,2013-08-03 11:28:00,
2013-08-03 06:33:00,60.2,57.6,29.95,NNE,21,0.0,0.0,91,0.00,,,0.00,Wunderground v.1.15,2013-08-03 11:33:00,
2013-08-03 06:39:00,60.5,57.9,29.95,NE,36,1.0,3.0,91,0.00,,,0.00,Wunderground v.1.15,2013-08-03 11:39:00,
2013-08-03 06:45:00,61.1,58.1,29.95,NNE,30,2.0,4.0,90,0.00,,,0.00,Wunderground v.1.15,2013-08-03 11:45:00,
2013-08-03 06:50:00,61.5,58.2,29.94,NE,34,3.0,3.0,89,0.00,,,0.00,Wunderground v.1.15,2013-08-03 11:50:00,
2013-08-03 06:56:00,61.9,58.3,29.95,NE,34,3.0,3.0,88,0.00,,,0.00,Wunderground v.1.15,2013-08-03 11:56:00,
2013-08-03 07:01:00,62.1,58.5,29.95,ENE,70,2.0,2.0,88,0.00,,,0.00,Wunderground v.1.15,2013-08-03 12:01:00,
2013-08-03 07:07:00,62.4,58.5,29.96,SSE,158,2.0,2.0,87,0.00,,,0.00,Wunderground v.1.15,2013-08-03 12:07:00,
2013-08-03 07:12:00,62.6,58.7,29.96,NE,43,2.0,4.0,87,0.00,,,0.00,Wunderground v.1.15,2013-08-03 12:12:00,
2013-08-03 07:18:00,63.0,58.7,29.96,NNE,27,3.0,7.0,86,0.00,,,0.00,Wunderground v.1.15,2013-08-03 12:18:00,
2013-08-03 07:24:00,63.4,58.8,29.96,East,81,4.0,6.0,85,0.00,,,0.00,Wunderground v.1.15,2013-08-03 12:24:00,
2013-08-03 07:30:00,63.7,58.8,29.96,NNE,30,4.0,4.0,84,0.00,,,0.00,Wunderground v.1.15,2013-08-03 12:30:00,
2013-08-03 07:36:00,64.0,58.7,29.96,NE,46,5.0,7.0,83,0.00,,,0.00,Wunderground v.1.15,2013-08-03 12:36:00,
2013-08-03 07:42:00,64.3,59.0,29.96,North,6,5.0,7.0,83,0.00,,,0.00,Wunderground v.1.15,2013-08-03 12:42:00,
2013-08-03 07:48:00,64.6,59.0,29.97,NE,46,5.0,8.0,82,0.00,,,0.00,Wunderground v.1.15,2013-08-03 12:48:00,
2013-08-03 07:53:00,64.9,59.3,29.97,North,359,5.0,5.0,82,0.00,,,0.00,Wunderground v.1.15,2013-08-03 12:53:00,
2013-08-03 07:59:00,65.2,59.2,29.97,NE,46,5.0,9.0,81,0.00,,,0.00,Wunderground v.1.15,2013-08-03 12:59:00,
2013-08-03 08:05:00,65.6,59.3,29.98,SSE,163,4.0,8.0,80,0.00,,,0.00,Wunderground v.1.15,2013-08-03 13:05:00,
2013-08-03 08:11:00,66.3,59.6,29.99,NNE,21,3.0,5.0,79,0.00,,,0.00,Wunderground v.1.15,2013-08-03 13:11:00,
2013-08-03 08:16:00,66.7,59.6,29.99,ESE,110,4.0,5.0,78,0.00,,,0.00,Wunderground v.1.15,2013-08-03 13:16:00,
2013-08-03 08:22:00,67.4,59.9,30.00,NE,34,3.0,10.0,77,0.00,,,0.00,Wunderground v.1.15,2013-08-03 13:22:00,
2013-08-03 08:28:00,67.9,60.4,30.00,NNE,31,3.0,10.0,77,0.00,,,0.00,Wunderground v.1.15,2013-08-03 13:28:00,
2013-08-03 08:34:00,68.1,59.9,30.00,East,96,4.0,5.0,75,0.00,,,0.00,Wunderground v.1.15,2013-08-03 13:34:00,
2013-08-03 08:40:00,67.9,59.7,30.00,ENE,68,3.0,3.0,75,0.00,,,0.00,Wunderground v.1.15,2013-08-03 13:40:00,
2013-08-03 08:45:00,67.6,59.8,30.00,ESE,113,4.0,11.0,76,0.00,,,0.00,Wunderground v.1.15,2013-08-03 13:45:00,
2013-08-03 08:51:00,67.7,60.2,30.01,ENE,60,3.0,3.0,77,0.00,,,0.00,Wunderground v.1.15,2013-08-03 13:51:00,
2013-08-03 08:56:00,67.9,60.1,30.01,East,83,3.0,4.0,76,0.00,,,0.00,Wunderground v.1.15,2013-08-03 13:56:00,
2013-08-03 09:01:00,68.1,60.2,30.01,East,86,2.0,2.0,76,0.00,,,0.00,Wunderground v.1.15,2013-08-03 14:01:00,
2013-08-03 09:07:00,68.2,60.7,30.01,NNE,16,2.0,5.0,77,0.00,,,0.00,Wunderground v.1.15,2013-08-03 14:07:00,
2013-08-03 09:14:00,68.4,60.9,30.02,NNE,19,3.0,4.0,77,0.00,,,0.00,Wunderground v.1.15,2013-08-03 14:14:00,
2013-08-03 09:20:00,68.2,60.7,30.02,NE,46,3.0,3.0,77,0.00,,,0.00,Wunderground v.1.15,2013-08-03 14:20:00,
2013-08-03 09:25:00,68.1,60.6,30.02,NNE,15,3.0,6.0,77,0.00,,,0.00,Wunderground v.1.15,2013-08-03 14:25:00,
2013-08-03 09:31:00,68.1,60.2,30.01,ESE,110,3.0,4.0,76,0.00,,,0.00,Wunderground v.1.15,2013-08-03 14:31:00,
2013-08-03 09:37:00,68.2,60.7,30.02,NNE,23,2.0,4.0,77,0.00,,,0.00,Wunderground v.1.15,2013-08-03 14:37:00,
2013-08-03 09:43:00,68.3,60.8,30.02,NE,56,1.0,2.0,77,0.00,,,0.00,Wunderground v.1.15,2013-08-03 14:43:00,
2013-08-03 09:49:00,68.6,60.4,30.03,NNE,24,1.0,2.0,75,0.00,,,0.00,Wunderground v.1.15,2013-08-03 14:49:00,
2013-08-03 09:55:00,69.0,60.7,30.02,ENE,73,1.0,3.0,75,0.00,,,0.00,Wunderground v.1.15,2013-08-03 14:55:00,
2013-08-03 10:00:00,69.8,60.8,30.02,East,88,1.0,2.0,73,0.00,,,0.00,Wunderground v.1.15,2013-08-03 15:00:00,
2013-08-03 10:06:00,70.9,61.4,30.03,ESE,105,2.0,4.0,72,0.00,,,0.00,Wunderground v.1.15,2013-08-03 15:06:00,
2013-08-03 10:11:00,71.3,61.0,30.03,East,84,1.0,3.0,70,0.00,,,0.00,Wunderground v.1.15,2013-08-03 15:11:00,
2013-08-03 10:17:00,71.4,61.1,30.03,ESE,103,2.0,5.0,70,0.00,,,0.00,Wunderground v.1.15,2013-08-03 15:17:00,
2013-08-03 10:23:00,71.6,60.9,30.03,NNE,26,3.0,4.0,69,0.00,,,0.00,Wunderground v.1.15,2013-08-03 15:23:00,
2013-08-03 10:28:00,72.0,61.3,30.03,ESE,116,3.0,4.0,69,0.00,,,0.00,Wunderground v.1.15,2013-08-03 15:28:00,
2013-08-03 10:34:00,72.2,61.0,30.03,NE,41,2.0,4.0,68,0.00,,,0.00,Wunderground v.1.15,2013-08-03 15:34:00,
2013-08-03 10:39:00,72.8,62.0,30.03,ENE,64,2.0,4.0,69,0.00,,,0.00,Wunderground v.1.15,2013-08-03 15:39:00,
2013-08-03 10:45:00,73.1,61.5,30.04,ENE,68,2.0,4.0,67,0.00,,,0.00,Wunderground v.1.15,2013-08-03 15:45:00,
2013-08-03 10:51:00,73.4,61.3,30.03,North,4,3.0,5.0,66,0.00,,,0.00,Wunderground v.1.15,2013-08-03 15:51:00,
2013-08-03 10:57:00,73.5,60.1,30.04,ESE,110,3.0,7.0,63,0.00,,,0.00,Wunderground v.1.15,2013-08-03 15:57:00,
2013-08-03 11:02:00,73.7,60.8,30.03,ESE,108,3.0,5.0,64,0.00,,,0.00,Wunderground v.1.15,2013-08-03 16:02:00,
2013-08-03 11:08:00,73.6,61.1,30.04,ESE,102,3.0,5.0,65,0.00,,,0.00,Wunderground v.1.15,2013-08-03 16:08:00,
2013-08-03 11:14:00,74.2,61.2,30.04,ESE,103,2.0,3.0,64,0.00,,,0.00,Wunderground v.1.15,2013-08-03 16:14:00,
2013-08-03 11:20:00,74.4,60.1,30.04,NNW,345,2.0,6.0,61,0.00,,,0.00,Wunderground v.1.15,2013-08-03 16:20:00,
2013-08-03 11:26:00,74.6,61.2,30.04,NE,53,3.0,6.0,63,0.00,,,0.00,Wunderground v.1.15,2013-08-03 16:26:00,
2013-08-03 11:32:00,75.7,61.3,30.04,NNW,339,2.0,3.0,61,0.00,,,0.00,Wunderground v.1.15,2013-08-03 16:32:00,
2013-08-03 11:38:00,76.2,61.8,30.04,East,99,2.0,5.0,61,0.00,,,0.00,Wunderground v.1.15,2013-08-03 16:38:00,
2013-08-03 11:43:00,76.6,61.7,30.04,North,352,3.0,6.0,60,0.00,,,0.00,Wunderground v.1.15,2013-08-03 16:43:00,
2013-08-03 11:49:00,76.8,62.3,30.04,ENE,75,2.0,6.0,61,0.00,,,0.00,Wunderground v.1.15,2013-08-03 16:49:00,
2013-08-03 11:55:00,77.7,61.3,30.04,NNE,19,2.0,4.0,57,0.00,,,0.00,Wunderground v.1.15,2013-08-03 16:55:00,
2013-08-03 12:00:00,77.5,61.1,30.04,North,3,3.0,3.0,57,0.00,,,0.00,Wunderground v.1.15,2013-08-03 17:00:00,
2013-08-03 12:06:00,77.2,61.8,30.04,NNE,31,3.0,5.0,59,0.00,,,0.00,Wunderground v.1.15,2013-08-03 17:06:00,
2013-08-03 12:11:00,76.9,61.0,30.04,ESE,108,3.0,4.0,58,0.00,,,0.00,Wunderground v.1.15,2013-08-03 17:11:00,
2013-08-03 12:17:00,77.3,62.3,30.04,ESE,104,2.0,4.0,60,0.00,,,0.00,Wunderground v.1.15,2013-08-03 17:17:00,
2013-08-03 12:23:00,77.5,61.1,30.04,ENE,67,3.0,6.0,57,0.00,,,0.00,Wunderground v.1.15,2013-08-03 17:23:00,
2013-08-03 12:29:00,78.3,61.3,30.04,ESE,115,3.0,6.0,56,0.00,,,0.00,Wunderground v.1.15,2013-08-03 17:29:00,
2013-08-03 12:35:00,78.5,62.5,30.05,NNE,25,2.0,9.0,58,0.00,,,0.00,Wunderground v.1.15,2013-08-03 17:35:00,
2013-08-03 12:41:00,78.1,62.1,30.04,NNE,23,3.0,6.0,58,0.00,,,0.00,Wunderground v.1.15,2013-08-03 17:41:00,
2013-08-03 12:47:00,78.2,62.2,30.05,East,79,3.0,6.0,58,0.00,,,0.00,Wunderground v.1.15,2013-08-03 17:47:00,
2013-08-03 12:53:00,78.0,61.0,30.04,NNE,20,3.0,6.0,56,0.00,,,0.00,Wunderground v.1.15,2013-08-03 17:53:00,
2013-08-03 12:59:00,78.1,62.1,30.04,NE,39,4.0,6.0,58,0.00,,,0.00,Wunderground v.1.15,2013-08-03 17:59:00,
2013-08-03 13:04:00,78.3,63.3,30.04,North,5,3.0,4.0,60,0.00,,,0.00,Wunderground v.1.15,2013-08-03 18:04:00,
2013-08-03 13:10:00,79.2,64.1,30.04,East,87,3.0,4.0,60,0.00,,,0.00,Wunderground v.1.15,2013-08-03 18:10:00,
2013-08-03 13:15:00,79.6,63.0,30.04,SW,232,3.0,6.0,57,0.00,,,0.00,Wunderground v.1.15,2013-08-03 18:15:00,
2013-08-03 13:21:00,80.3,63.7,30.05,NE,38,2.0,3.0,57,0.00,,,0.00,Wunderground v.1.15,2013-08-03 18:21:00,
2013-08-03 13:27:00,80.6,62.9,30.04,NNE,24,3.0,6.0,55,0.00,,,0.00,Wunderground v.1.15,2013-08-03 18:27:00,
2013-08-03 13:33:00,80.6,62.4,30.04,WNW,302,3.0,7.0,54,0.00,,,0.00,Wunderground v.1.15,2013-08-03 18:33:00,
2013-08-03 13:39:00,80.5,63.4,30.03,NE,38,3.0,8.0,56,0.00,,,0.00,Wunderground v.1.15,2013-08-03 18:39:00,
2013-08-03 13:44:00,80.1,62.0,30.04,NNE,29,4.0,7.0,54,0.00,,,0.00,Wunderground v.1.15,2013-08-03 18:44:00,
2013-08-03 13:50:00,79.8,61.7,30.04,NE,46,4.0,4.0,54,0.00,,,0.00,Wunderground v.1.15,2013-08-03 18:50:00,
2013-08-03 13:56:00,79.8,62.7,30.04,NE,36,4.0,7.0,56,0.00,,,0.00,Wunderground v.1.15,2013-08-03 18:56:00,
2013-08-03 14:02:00,80.8,63.1,30.04,NNE,31,3.0,7.0,55,0.00,,,0.00,Wunderground v.1.15,2013-08-03 19:02:00,
2013-08-03 14:07:00,81.1,61.8,30.04,SE,130,3.0,7.0,52,0.00,,,0.00,Wunderground v.1.15,2013-08-03 19:07:00,
2013-08-03 14:13:00,81.1,62.3,30.04,NE,51,3.0,5.0,53,0.00,,,0.00,Wunderground v.1.15,2013-08-03 19:13:00,
2013-08-03 14:19:00,80.7,60.9,30.04,North,6,4.0,6.0,51,0.00,,,0.00,Wunderground v.1.15,2013-08-03 19:19:00,
2013-08-03 14:25:00,80.8,62.6,30.03,NE,50,3.0,4.0,54,0.00,,,0.00,Wunderground v.1.15,2013-08-03 19:25:00,
2013-08-03 14:31:00,80.8,62.6,30.03,North,9,3.0,5.0,54,0.00,,,0.00,Wunderground v.1.15,2013-08-03 19:31:00,
2013-08-03 14:37:00,80.2,61.0,30.03,North,1,4.0,8.0,52,0.00,,,0.00,Wunderground v.1.15,2013-08-03 19:37:00,
2013-08-03 14:43:00,80.3,61.1,30.03,NE,38,4.0,6.0,52,0.00,,,0.00,Wunderground v.1.15,2013-08-03 19:43:00,
2013-08-03 14:49:00,80.7,61.4,30.03,East,84,4.0,6.0,52,0.00,,,0.00,Wunderground v.1.15,2013-08-03 19:49:00,
2013-08-03 14:55:00,80.4,60.6,30.03,NNE,20,4.0,6.0,51,0.00,,,0.00,Wunderground v.1.15,2013-08-03 19:55:00,
2013-08-03 15:00:00,80.4,61.7,30.03,NNE,27,3.0,4.0,53,0.00,,,0.00,Wunderground v.1.15,2013-08-03 20:00:00,
2013-08-03 15:06:00,81.2,60.8,30.03,East,94,3.0,4.0,50,0.00,,,0.00,Wunderground v.1.15,2013-08-03 20:06:00,
2013-08-03 15:12:00,81.4,61.5,30.03,North,359,2.0,2.0,51,0.00,,,0.00,Wunderground v.1.15,2013-08-03 20:12:00,
2013-08-03 15:17:00,80.8,61.0,30.03,NNE,26,2.0,5.0,51,0.00,,,0.00,Wunderground v.1.15,2013-08-03 20:17:00,
2013-08-03 15:23:00,80.6,61.3,30.03,NE,34,2.0,2.0,52,0.00,,,0.00,Wunderground v.1.15,2013-08-03 20:23:00,
2013-08-03 15:28:00,80.6,61.3,30.03,NNE,26,1.0,2.0,52,0.00,,,0.00,Wunderground v.1.15,2013-08-03 20:28:00,
2013-08-03 15:33:00,81.1,61.8,30.02,East,90,1.0,2.0,52,0.00,,,0.00,Wunderground v.1.15,2013-08-03 20:33:00,
2013-08-03 15:39:00,81.7,62.4,30.02,ENE,61,1.0,3.0,52,0.00,,,0.00,Wunderground v.1.15,2013-08-03 20:39:00,
2013-08-03 15:45:00,81.3,62.0,30.02,North,4,2.0,5.0,52,0.00,,,0.00,Wunderground v.1.15,2013-08-03 20:45:00,
2013-08-03 15:51:00,80.8,61.0,30.03,North,5,2.0,2.0,51,0.00,,,0.00,Wunderground v.1.15,2013-08-03 20:51:00,
2013-08-03 15:57:00,80.8,63.1,30.03,NE,49,1.0,2.0,55,0.00,,,0.00,Wunderground v.1.15,2013-08-03 20:57:00,
2013-08-03 16:03:00,81.0,62.8,30.03,NE,46,1.0,2.0,54,0.00,,,0.00,Wunderground v.1.15,2013-08-03 21:03:00,
2013-08-03 16:09:00,80.8,62.6,30.02,NNE,21,1.0,3.0,54,0.00,,,0.00,Wunderground v.1.15,2013-08-03 21:09:00,
2013-08-03 16:15:00,81.1,62.3,30.02,ESE,117,1.0,2.0,53,0.00,,,0.00,Wunderground v.1.15,2013-08-03 21:15:00,
2013-08-03 16:21:00,81.6,62.3,30.01,NNE,25,1.0,2.0,52,0.00,,,0.00,Wunderground v.1.15,2013-08-03 21:21:00,
2013-08-03 16:27:00,81.7,61.8,30.02,NE,36,2.0,4.0,51,0.00,,,0.00,Wunderground v.1.15,2013-08-03 21:27:00,
2013-08-03 16:33:00,81.8,61.9,30.01,ENE,60,2.0,6.0,51,0.00,,,0.00,Wunderground v.1.15,2013-08-03 21:33:00,
2013-08-03 16:38:00,81.1,62.3,30.01,ENE,57,3.0,7.0,53,0.00,,,0.00,Wunderground v.1.15,2013-08-03 21:38:00,
2013-08-03 16:43:00,80.4,63.3,30.01,NNE,29,3.0,7.0,56,0.00,,,0.00,Wunderground v.1.15,2013-08-03 21:43:00,
2013-08-03 16:49:00,79.8,63.2,30.00,NNE,13,2.0,7.0,57,0.00,,,0.00,Wunderground v.1.15,2013-08-03 21:49:00,
2013-08-03 16:55:00,79.2,62.1,29.99,NNE,21,2.0,4.0,56,0.00,,,0.00,Wunderground v.1.15,2013-08-03 21:55:00,
2013-08-03 17:00:00,78.8,63.3,29.99,East,96,2.0,3.0,59,0.00,,,0.00,Wunderground v.1.15,2013-08-03 22:00:00,
2013-08-03 17:06:00,78.3,62.3,29.98,ENE,59,1.0,3.0,58,0.00,,,0.00,Wunderground v.1.15,2013-08-03 22:06:00,
2013-08-03 17:12:00,78.1,62.6,29.98,NE,42,2.0,5.0,59,0.00,,,0.00,Wunderground v.1.15,2013-08-03 22:12:00,
2013-08-03 17:13:00,78.1,62.6,29.98,ENE,60,2.0,5.0,59,0.00,,,0.00,Wunderground v.1.15,2013-08-03 22:13:00,
2013-08-03 17:19:00,78.4,62.9,29.98,North,349,2.0,5.0,59,0.00,,,0.00,Wunderground v.1.15,2013-08-03 22:19:00,
2013-08-03 17:25:00,78.8,61.8,29.98,NNE,25,3.0,5.0,56,0.00,,,0.00,Wunderground v.1.15,2013-08-03 22:25:00,
2013-08-03 17:31:00,79.1,62.6,29.98,West,259,3.0,3.0,57,0.00,,,0.00,Wunderground v.1.15,2013-08-03 22:31:00,
2013-08-03 17:37:00,79.4,63.3,29.98,NE,34,3.0,11.0,58,0.00,,,0.00,Wunderground v.1.15,2013-08-03 22:37:00,
2013-08-03 17:42:00,79.7,62.6,29.98,NE,36,3.0,3.0,56,0.00,,,0.00,Wunderground v.1.15,2013-08-03 22:42:00,
2013-08-03 17:48:00,79.2,61.6,30.00,NNE,31,2.0,4.0,55,0.00,,,0.00,Wunderground v.1.15,2013-08-03 22:48:00,
2013-08-03 17:53:00,78.3,61.8,29.99,ENE,58,4.0,6.0,57,0.00,,,0.00,Wunderground v.1.15,2013-08-03 22:53:00,
2013-08-03 17:59:00,77.5,62.0,29.99,NE,51,4.0,6.0,59,0.00,,,0.00,Wunderground v.1.15,2013-08-03 22:59:00,
2013-08-03 18:05:00,76.9,62.0,29.98,NE,41,3.0,5.0,60,0.00,,,0.00,Wunderground v.1.15,2013-08-03 23:05:00,
2013-08-03 18:10:00,76.5,61.6,29.98,ENE,58,3.0,6.0,60,0.00,,,0.00,Wunderground v.1.15,2013-08-03 23:10:00,
2013-08-03 18:15:00,76.1,61.2,29.98,NNE,26,4.0,7.0,60,0.00,,,0.00,Wunderground v.1.15,2013-08-03 23:15:00,
2013-08-03 18:21:00,75.8,61.4,29.97,NNE,32,4.0,4.0,61,0.00,,,0.00,Wunderground v.1.15,2013-08-03 23:21:00,
2013-08-03 18:27:00,75.6,61.7,29.97,NNE,23,3.0,4.0,62,0.00,,,0.00,Wunderground v.1.15,2013-08-03 23:27:00,
2013-08-03 18:33:00,75.4,61.9,29.98,NNE,25,2.0,2.0,63,0.00,,,0.00,Wunderground v.1.15,2013-08-03 23:33:00,
2013-08-03 18:38:00,75.1,62.1,29.98,NNE,30,2.0,3.0,64,0.00,,,0.00,Wunderground v.1.15,2013-08-03 23:38:00,
2013-08-03 18:44:00,75.1,62.5,30.00,NNE,27,1.0,3.0,65,0.00,,,0.00,Wunderground v.1.15,2013-08-03 23:44:00,
2013-08-03 18:50:00,74.9,62.3,30.00,NNE,27,1.0,1.0,65,0.00,,,0.00,Wunderground v.1.15,2013-08-03 23:50:00,
2013-08-03 18:56:00,74.6,62.1,30.00,NNE,16,1.0,3.0,65,0.00,,,0.00,Wunderground v.1.15,2013-08-03 23:56:00,
2013-08-03 19:01:00,74.5,62.0,30.00,NE,46,2.0,4.0,65,0.00,,,0.00,Wunderground v.1.15,2013-08-04 00:01:00,
2013-08-03 19:07:00,74.5,62.4,30.00,ENE,72,1.0,4.0,66,0.00,,,0.00,Wunderground v.1.15,2013-08-04 00:07:00,
2013-08-03 19:12:00,74.5,62.4,30.00,North,349,1.0,1.0,66,0.00,,,0.00,Wunderground v.1.15,2013-08-04 00:12:00,
2013-08-03 19:18:00,74.6,62.9,30.01,NE,36,1.0,1.0,67,0.00,,,0.00,Wunderground v.1.15,2013-08-04 00:18:00,
2013-08-03 19:21:00,74.6,62.5,30.01,ENE,64,0.0,2.0,66,0.00,,,0.00,Wunderground v.1.15,2013-08-04 00:21:00,
2013-08-03 19:27:00,74.7,62.6,30.01,North,1,0.0,2.0,66,0.00,,,0.00,Wunderground v.1.15,2013-08-04 00:27:00,
2013-08-03 19:33:00,74.4,62.3,30.01,NNE,25,0.0,1.0,66,0.00,,,0.00,Wunderground v.1.15,2013-08-04 00:33:00,
2013-08-03 19:39:00,74.0,61.9,30.01,NE,46,0.0,1.0,66,0.00,,,0.00,Wunderground v.1.15,2013-08-04 00:39:00,
2013-08-03 19:45:00,73.7,61.6,30.01,NNE,20,1.0,2.0,66,0.00,,,0.00,Wunderground v.1.15,2013-08-04 00:45:00,
2013-08-03 19:51:00,73.4,61.3,30.02,NE,37,1.0,2.0,66,0.00,,,0.00,Wunderground v.1.15,2013-08-04 00:51:00,
2013-08-03 19:57:00,73.1,61.1,30.02,NNE,16,2.0,3.0,66,0.00,,,0.00,Wunderground v.1.15,2013-08-04 00:57:00,
2013-08-03 20:03:00,72.9,60.9,30.02,NE,34,2.0,4.0,66,0.00,,,0.00,Wunderground v.1.15,2013-08-04 01:03:00,
2013-08-03 20:09:00,72.7,60.7,30.02,North,11,2.0,4.0,66,0.00,,,0.00,Wunderground v.1.15,2013-08-04 01:09:00,
2013-08-03 20:15:00,72.5,60.5,30.02,NNE,20,2.0,5.0,66,0.00,,,0.00,Wunderground v.1.15,2013-08-04 01:15:00,
2013-08-03 20:20:00,72.3,60.7,30.02,NNE,32,2.0,2.0,67,0.00,,,0.00,Wunderground v.1.15,2013-08-04 01:20:00,
2013-08-03 20:26:00,71.9,60.3,30.02,NNE,23,2.0,3.0,67,0.00,,,0.00,Wunderground v.1.15,2013-08-04 01:26:00,
2013-08-03 20:32:00,71.7,60.2,30.02,NNE,25,2.0,5.0,67,0.00,,,0.00,Wunderground v.1.15,2013-08-04 01:32:00,
2013-08-03 20:37:00,71.6,60.5,30.02,NNE,26,3.0,5.0,68,0.00,,,0.00,Wunderground v.1.15,2013-08-04 01:37:00,
2013-08-03 20:43:00,71.4,60.3,30.02,NE,48,3.0,5.0,68,0.00,,,0.00,Wunderground v.1.15,2013-08-04 01:43:00,
2013-08-03 20:49:00,71.4,59.9,30.02,North,8,3.0,6.0,67,0.00,,,0.00,Wunderground v.1.15,2013-08-04 01:49:00,
2013-08-03 20:54:00,71.2,59.7,30.03,NE,39,3.0,3.0,67,0.00,,,0.00,Wunderground v.1.15,2013-08-04 01:54:00,
2013-08-03 21:00:00,71.0,59.5,30.03,ENE,77,3.0,4.0,67,0.00,,,0.00,Wunderground v.1.15,2013-08-04 02:00:00,
2013-08-03 21:06:00,70.9,59.4,30.03,North,356,3.0,4.0,67,0.00,,,0.00,Wunderground v.1.15,2013-08-04 02:06:00,
2013-08-03 21:11:00,70.9,59.0,30.03,NE,36,3.0,4.0,66,0.00,,,0.00,Wunderground v.1.15,2013-08-04 02:11:00,
2013-08-03 21:17:00,70.8,59.3,30.04,NNE,18,3.0,5.0,67,0.00,,,0.00,Wunderground v.1.15,2013-08-04 02:17:00,
2013-08-03 21:22:00,70.6,59.1,30.04,NE,51,3.0,4.0,67,0.00,,,0.00,Wunderground v.1.15,2013-08-04 02:22:00,
2013-08-03 21:27:00,70.5,59.0,30.04,ENE,66,3.0,4.0,67,0.00,,,0.00,Wunderground v.1.15,2013-08-04 02:27:00,
2013-08-03 21:33:00,70.4,58.5,30.05,East,89,3.0,4.0,66,0.00,,,0.00,Wunderground v.1.15,2013-08-04 02:33:00,
2013-08-03 21:39:00,70.2,58.7,30.05,NNW,337,3.0,5.0,67,0.00,,,0.00,Wunderground v.1.15,2013-08-04 02:39:00,
2013-08-03 21:44:00,70.1,58.6,30.05,NE,46,3.0,4.0,67,0.00,,,0.00,Wunderground v.1.15,2013-08-04 02:44:00,
2013-08-03 21:50:00,70.0,58.5,30.05,NE,46,3.0,3.0,67,0.00,,,0.00,Wunderground v.1.15,2013-08-04 02:50:00,
2013-08-03 21:56:00,69.8,58.3,30.05,NNE,23,2.0,5.0,67,0.00,,,0.00,Wunderground v.1.15,2013-08-04 02:56:00,
2013-08-03 22:02:00,69.7,58.3,30.06,ENE,67,3.0,3.0,67,0.00,,,0.00,Wunderground v.1.15,2013-08-04 03:02:00,
2013-08-03 22:07:00,69.6,57.7,30.06,NNE,27,3.0,3.0,66,0.00,,,0.00,Wunderground v.1.15,2013-08-04 03:07:00,
2013-08-03 22:13:00,69.4,58.0,30.06,ENE,65,2.0,3.0,67,0.00,,,0.00,Wunderground v.1.15,2013-08-04 03:13:00,
2013-08-03 22:18:00,69.3,57.9,30.06,NE,38,2.0,3.0,67,0.00,,,0.00,Wunderground v.1.15,2013-08-04 03:18:00,
2013-08-03 22:24:00,69.1,57.7,30.06,NE,43,2.0,7.0,67,0.00,,,0.00,Wunderground v.1.15,2013-08-04 03:24:00,
2013-08-03 22:30:00,68.9,57.9,30.06,NNW,337,3.0,4.0,68,0.00,,,0.00,Wunderground v.1.15,2013-08-04 03:30:00,
2013-08-03 22:36:00,68.7,57.7,30.06,NE,55,3.0,4.0,68,0.00,,,0.00,Wunderground v.1.15,2013-08-04 03:36:00,
2013-08-03 22:41:00,68.5,57.5,30.06,NE,50,3.0,3.0,68,0.00,,,0.00,Wunderground v.1.15,2013-08-04 03:41:00,
2013-08-03 22:47:00,68.4,57.8,30.07,NNE,21,2.0,4.0,69,0.00,,,0.00,Wunderground v.1.15,2013-08-04 03:47:00,
2013-08-03 22:53:00,68.2,57.6,30.06,NE,46,2.0,2.0,69,0.00,,,0.00,Wunderground v.1.15,2013-08-04 03:53:00,
2013-08-03 22:59:00,68.0,57.4,30.06,NE,34,2.0,4.0,69,0.00,,,0.00,Wunderground v.1.15,2013-08-04 03:59:00,
2013-08-03 23:01:00,68.0,57.4,30.06,NE,46,2.0,2.0,69,0.00,,,0.00,Wunderground v.1.15,2013-08-04 04:01:00,
2013-08-03 23:02:00,67.9,57.4,30.07,NE,44,2.0,4.0,69,0.00,,,0.00,Wunderground v.1.15,2013-08-04 04:02:00,
2013-08-03 23:03:00,67.9,57.4,30.07,NE,56,2.0,4.0,69,0.00,,,0.00,Wunderground v.1.15,2013-08-04 04:03:00,
2013-08-03 23:05:00,67.8,57.7,30.07,NNE,20,2.0,4.0,70,0.00,,,0.00,Wunderground v.1.15,2013-08-04 04:05:00,
2013-08-03 23:11:00,67.5,57.4,30.07,NE,42,2.0,3.0,70,0.00,,,0.00,Wunderground v.1.15,2013-08-04 04:11:00,
2013-08-03 23:17:00,67.3,57.6,30.07,North,9,1.0,5.0,71,0.00,,,0.00,Wunderground v.1.15,2013-08-04 04:17:00,
2013-08-03 23:22:00,67.1,57.4,30.07,ESE,113,1.0,2.0,71,0.00,,,0.00,Wunderground v.1.15,2013-08-04 04:22:00,
2013-08-03 23:24:00,67.1,57.4,30.07,ESE,104,1.0,2.0,71,0.00,,,0.00,Wunderground v.1.15,2013-08-04 04:24:00,
2013-08-03 23:29:00,66.8,57.5,30.07,ENE,64,2.0,2.0,72,0.00,,,0.00,Wunderground v.1.15,2013-08-04 04:29:00,
2013-08-03 23:35:00,66.6,57.3,30.07,NNE,31,2.0,4.0,72,0.00,,,0.00,Wunderground v.1.15,2013-08-04 04:35:00,
2013-08-03 23:41:00,66.4,57.1,30.07,NE,34,1.0,2.0,72,0.00,,,0.00,Wunderground v.1.15,2013-08-04 04:41:00,
2013-08-03 23:47:00,66.2,57.3,30.07,NNE,20,2.0,4.0,73,0.00,,,0.00,Wunderground v.1.15,2013-08-04 04:47:00,
2013-08-03 23:52:00,66.2,57.3,30.07,NNE,21,2.0,3.0,73,0.00,,,0.00,Wunderground v.1.15,2013-08-04 04:52:00,
2013-08-03 23:58:00,66.0,57.1,30.07,NE,38,1.0,3.0,73,0.00,,,0.00,Wunderground v.1.15,2013-08-04 04:58:00,